Location: Aufkirchen
(47.9603°N, 11.3653°E)
Time: 13:54:31
(UTC+01:00)

Transit 2A Rocket - Pass Details

Date: 08 December 2020
Orbit: 592 x 910 km, 66.7° (Epoch: 21 January)

Event Time Altitude Azimuth Distance (km) Brightness Sun altitude
Rises 10:11:38 0° 307° (NW) 3,044 7.6 14.7°
Reaches altitude 10° 10:15:55 10° 271° (W) 2,042 7.0 15.0°
Maximum altitude 10:16:59 11° 257° (WSW) 1,975 7.1 15.1°
Drops below altitude 10° 10:18:02 10° 244° (WSW) 2,005 7.2 15.2°
Sets 10:22:04 0° 206° (SSW) 2,850 8.6 15.5°
